User: anonymous   Login
Location: Unspecified
(0.0000°N, 0.0000°E)
Time: 06:47:26
(UTC+02:00)
Language:

Orbus 21S - Orbit

View from above orbital plane
View from above orbital plane
View from above satellite
View from above satellite

Ground track
Ground track

The orbit data is extracted from the following two-line orbital elements,

1 20669U 90056C   17206.72640761 +.00001258 +00000-0 +74286-3 0  9998
2 20669 024.4195 070.8898 7105644 051.5382 353.1876 02.48312649228386
Epoch (UTC): 25 July 2017 17:26:01
Eccentricity: 0.7105644
inclination: 24.4195°
perigee height: 289 km
apogee height: 33025 km
right ascension of ascending node: 70.8898°
argument of perigee: 51.5382°
revolutions per day: 2.48312649
mean anomaly at epoch: 353.1876°
orbit number at epoch: 22838

The dashed part of the orbit path shows where the satellite is in the earth's shadow,  

DLR